Wind_Speed
2 6 8 7 8 8 7 4 2 2 5 9 9 7 10 10 9 13 14 7 4 8 12 11 12 10 8 11 9 8 8 10 11 11 10 8 8 8 8 8 7 5 3 3 5 6 8 10 11 12 13 14 14 15 15 15 16 16 16 16 16 15 13 12 11 10 10 10 10 10 11 10 10 10 9 9 10 11 12 14 16 17 17 18 19 19
2 9 8 6 5 5 4 1 1 4 6 7 7 8 9 8 12 12 8 8 7 7 9 10 12 7 11 11 9 10 10 10 10 11 10 9 8 7 8 8 8 5 4 5 7 9 11 13 14 14 15 15 17 17 17 18 18 18 17 18 18 17 15 14 13 12 11 10 9 10 11 11 11 10 10 10 10 11 12 15 17 17 17 19 20 20
6 10 7 6 2 2 1 3 3 6 6 6 6 7 8 10 14 9 5 11 10 5 7 10 10 5 14 12 11 12 11 12 12 11 10 8 8 7 8 8 8 8 7 8 10 12 14 16 17 16 16 17 18 19 19 20 20 20 19 18 19 18 17 16 15 14 13 12 11 10 11 11 11 12 11 11 11 10 11 14 16 16 17 20 22 22
7 7 7 5 2 2 1 1 4 7 5 6 7 8 9 12 13 10 10 17 14 7 6 10 8 4 13 12 12 13 12 13 12 11 10 8 7 6 7 7 8 9 10 10 12 15 17 18 18 18 19 20 21 22 23 24 25 25 22 20 21 20 18 18 17 16 15 14 12 12 12 12 12 12 11 11 11 10 11 14 15 15 19 22 22 23
7 4 5 3 3 4 5 5 7 8 7 4 6 9 11 14 15 13 13 16 15 5 2 9 9 4 9 10 11 10 11 11 10 9 8 8 8 6 7 8 9 11 11 12 15 18 22 24 25 25 24 24 25 25 27 28 30 30 28 26 24 22 20 19 18 18 16 14 13 12 12 12 12 12 11 11 11 11 13 15 14 16 19 21 22 23
6 3 3 2 3 7 9 9 8 7 8 3 6 10 12 16 17 17 15 13 10 3 3 7 10 7 8 11 9 7 8 8 7 6 7 9 10 9 10 12 14 15 16 18 20 22 26 28 27 26 25 26 27 27 29 31 31 31 31 30 29 26 24 22 21 20 18 16 15 13 13 13 14 14 14 14 13 13 14 15 16 18 19 19 22 24
4 1 1 3 6 9 10 9 6 6 8 4 7 11 12 15 17 15 14 10 6 7 5 6 9 11 6 10 8 6 7 6 6 7 9 10 11 11 13 14 16 17 18 19 21 24 26 26 26 26 27 29 30 31 31 30 29 29 30 30 30 29 28 25 24 22 20 18 17 16 15 15 15 15 16 15 15 15 14 15 16 18 18 19 22 23
3 4 5 5 6 9 10 9 8 8 6 6 12 15 12 15 17 12 10 7 6 8 4 7 12 13 5 6 6 6 6 7 7 10 12 12 13 14 14 16 18 19 19 18 18 21 23 24 27 28 28 29 29 29 28 28 28 28 29 29 29 29 29 28 27 25 23 20 18 17 18 18 17 17 17 16 14 14 14 16 17 17 18 20 21 23
2 5 5 6 8 9 8 9 10 8 5 7 14 15 12 14 15 9 6 6 6 5 5 11 15 12 5 4 5 3 8 10 11 13 13 13 14 15 16 18 20 20 20 19 16 18 23 26 27 26 25 26 26 25 27 28 29 29 28 28 28 28 29 28 28 28 26 23 20 19 21 22 20 18 17 16 14 14 14 16 17 18 20 20 20 22
1 3 2 3 7 7 7 9 9 7 7 9 14 13 11 11 9 5 3 7 6 4 9 16 16 12 6 3 2 5 9 10 11 12 12 13 15 16 17 19 19 18 17 16 17 21 25 26 25 24 24 24 24 23 26 27 28 28 27 27 28 28 28 28 27 27 26 25 24 24 24 21 17 15 14 14 15 15 16 17 17 18 20 21 22 23
2 1 2 1 4 4 7 7 4 3 5 11 12 12 10 5 4 3 1 3 5 5 11 19 19 14 7 3 3 6 5 6 10 10 12 15 17 18 17 17 18 17 14 14 18 24 26 25 23 23 23 24 24 24 26 28 28 27 25 26 28 29 29 29 28 26 23 22 21 19 16 14 13 13 14 15 17 18 20 20 19 18 19 21 23 24
4 2 0 1 1 3 6 5 3 4 4 7 9 13 10 5 5 4 1 2 4 8 14 18 17 13 8 3 3 4 3 5 8 9 13 17 19 19 17 17 18 16 13 14 18 23 25 24 23 22 22 24 27 29 30 31 30 28 26 26 28 28 29 28 25 21 19 16 13 11 11 12 14 16 17 19 21 22 22 23 22 20 21 22 22 23
3 4 1 2 2 3 6 4 0 2 4 10 12 13 11 8 7 6 7 7 6 9 14 15 13 9 6 2 3 4 4 5 7 7 13 18 19 19 18 17 17 14 14 16 17 19 22 22 22 22 24 26 28 28 30 31 30 28 27 26 27 28 27 21 17 16 15 15 13 13 14 15 16 17 19 20 21 22 23 25 25 23 22 23 22 22
2 4 3 1 2 4 8 8 6 5 8 12 10 9 8 8 8 8 10 10 8 11 12 12 7 7 7 2 2 5 4 3 7 8 12 16 18 19 17 17 17 13 14 16 15 17 20 21 24 25 26 28 27 27 30 31 29 27 27 27 28 28 24 18 17 18 17 17 16 16 16 17 18 19 19 20 22 24 26 27 25 23 22 22 22 22
4 1 4 5 2 6 9 6 4 5 4 7 7 5 5 4 4 6 8 9 11 13 11 9 6 9 11 2 4 4 1 3 9 11 14 17 18 18 16 17 17 13 15 15 13 18 21 21 26 29 28 28 26 28 32 31 28 27 29 28 26 26 24 22 21 21 20 19 18 18 19 19 20 21 22 24 25 25 25 25 23 23 23 22 21 21
3 2 3 5 0 6 8 2 2 4 1 5 6 4 6 6 5 5 7 8 11 12 8 5 5 10 7 6 7 5 5 7 12 13 16 20 21 18 16 17 16 14 16 14 12 17 21 24 30 29 26 26 26 30 33 32 29 28 29 28 26 26 26 24 23 22 21 20 20 20 21 21 22 24 25 24 24 23 23 23 23 23 22 21 20 19
3 2 4 4 3 5 7 3 3 5 3 5 5 6 8 6 3 5 7 8 8 8 6 6 8 10 4 4 4 10 11 13 14 14 18 21 21 19 17 16 15 15 15 13 13 19 24 29 31 28 24 26 30 33 34 31 28 28 28 27 26 26 25 24 23 23 22 22 23 23 22 22 23 24 25 23 23 23 22 21 21 20 20 19 18 17
3 5 3 2 2 4 3 5 10 8 5 4 4 8 9 4 4 4 6 8 10 8 5 7 11 11 8 4 6 12 15 15 16 18 21 22 21 20 17 16 17 16 15 15 17 23 29 29 27 25 25 29 32 32 30 28 26 27 26 25 25 25 24 24 24 24 24 24 24 23 22 23 23 23 24 23 22 22 21 20 20 20 20 19 19 19
2 5 1 2 1 2 3 3 6 8 7 6 4 6 6 1 3 6 4 7 12 11 8 9 10 9 7 7 8 12 15 17 18 21 23 23 22 19 17 17 18 17 15 15 18 24 29 25 23 26 29 32 31 27 26 27 26 27 26 24 24 25 26 26 25 25 25 24 22 22 22 23 23 23 23 22 21 21 21 21 21 21 21 20 20 20
1 3 1 3 3 3 1 2 2 4 6 7 5 3 3 2 3 2 1 4 9 11 11 12 11 7 5 5 8 12 14 16 20 22 22 21 21 18 16 17 17 16 16 16 17 23 26 23 24 28 31 31 27 24 26 27 26 26 26 25 25 26 26 26 25 25 25 23 22 23 23 23 23 23 22 21 21 21 22 22 22 22 22 22 22 22
1 2 3 2 3 3 0 1 1 3 4 3 3 4 4 1 2 2 1 1 3 8 11 11 11 7 3 1 6 12 13 15 20 21 20 19 19 17 16 16 16 16 18 17 19 23 23 23 27 30 30 27 24 24 27 27 26 26 25 24 24 25 26 26 26 25 24 23 23 23 24 24 24 23 22 22 22 22 23 22 22 22 23 23 24 24
1 2 4 6 6 3 2 4 5 7 6 4 3 3 4 5 4 3 3 1 2 6 7 7 11 9 2 2 5 11 13 16 20 21 19 18 18 17 15 15 16 18 18 18 22 24 23 25 29 30 28 25 24 26 27 26 25 25 24 24 24 25 25 26 26 25 24 24 24 24 24 24 23 23 23 23 23 23 23 23 23 24 24 24 24 23
1 2 3 6 6 3 6 6 8 11 10 8 7 4 3 4 5 5 7 7 7 7 6 6 10 7 2 3 7 12 14 17 19 20 19 18 16 16 15 14 15 17 18 20 25 23 22 26 29 28 26 24 25 27 27 26 25 25 24 24 24 25 25 25 25 25 24 24 24 24 24 24 23 23 23 23 23 23 23 24 24 24 23 24 23 23
1 1 3 6 3 4 7 4 5 7 5 5 7 5 4 4 2 1 4 7 7 7 7 7 8 4 3 6 11 13 15 18 17 18 19 17 14 15 15 13 14 18 19 22 24 22 23 28 28 26 26 25 26 27 26 26 25 24 24 24 25 26 25 25 25 24 25 25 25 25 24 23 23 23 23 23 23 23 23 23 23 23 23 23 23 22
1 1 4 6 4 1 2 0 2 4 3 3 4 5 6 5 0 3 3 2 4 6 8 8 8 7 7 12 15 15 17 19 18 18 17 15 13 14 13 12 14 18 19 21 22 21 25 28 26 25 25 25 26 27 26 26 25 24 24 24 25 25 25 25 25 25 25 25 25 25 24 24 23 23 23 23 23 23 23 23 23 22 22 22 22 22
2 2 3 4 6 6 5 5 5 6 5 1 4 4 4 3 1 1 3 3 5 7 9 8 9 12 15 17 18 18 19 21 20 19 16 14 13 13 12 12 15 17 19 20 20 20 24 27 25 24 25 25 27 27 26 26 25 25 24 24 25 25 25 26 25 25 26 26 26 25 25 24 24 23 24 23 23 23 23 23 23 22 22 22 22 22
0 1 1 1 2 5 8 10 11 10 9 7 1 3 3 3 3 1 4 6 8 11 9 8 9 17 20 20 20 20 20 21 20 20 18 15 14 14 12 12 15 17 17 18 18 19 23 25 25 24 25 26 26 26 26 26 25 25 25 25 25 24 25 25 25 26 26 26 26 26 25 25 24 24 24 23 23 23 24 24 23 23 22 21 21 21
0 2 2 3 6 9 11 15 15 11 10 11 6 2 3 2 2 1 3 7 10 10 6 7 11 17 18 18 20 19 20 20 19 19 19 16 14 14 12 14 18 18 17 16 17 19 21 23 24 24 25 26 26 27 27 26 25 25 25 25 25 25 25 25 25 26 26 26 26 26 26 26 25 25 24 24 24 24 24 23 23 23 22 21 21 21
1 3 1 2 7 11 12 14 14 10 8 7 6 5 5 3 4 4 6 10 9 6 9 15 18 18 17 16 17 17 17 18 18 18 16 15 14 13 13 15 19 19 18 18 18 18 19 22 23 25 26 26 27 27 27 26 25 25 25 25 25 25 25 25 25 26 26 26 26 26 27 27 26 25 25 25 25 24 24 23 23 22 22 21 21 20
2 1 1 1 8 11 12 11 9 7 7 6 7 8 6 5 6 8 10 11 10 11 16 19 19 16 14 13 14 16 15 14 15 15 14 13 13 13 14 16 18 19 19 18 19 19 20 23 24 25 26 26 27 27 27 27 27 26 26 25 25 26 26 25 25 26 26 26 26 26 27 27 27 26 26 26 26 24 24 23 22 22 22 21 20 19
1 1 2 1 5 8 6 4 4 5 7 7 7 8 7 6 8 9 10 10 9 12 14 15 15 12 8 9 14 16 14 12 15 16 15 13 12 13 14 16 18 19 18 18 19 20 22 24 24 25 25 25 26 27 27 27 28 27 26 26 26 27 26 26 25 26 26 26 26 26 27 27 27 27 26 26 26 24 23 22 21 22 22 21 20 19
1 1 1 1 5 5 2 2 3 2 2 4 7 9 9 8 7 7 8 9 8 11 13 12 11 9 9 12 15 15 15 15 17 17 16 13 13 13 14 17 19 19 19 19 19 20 22 23 24 24 25 25 26 27 27 28 28 28 27 27 27 27 26 26 26 26 26 26 26 26 26 27 27 27 27 26 26 25 24 24 24 23 22 21 20 18
0 2 1 1 4 4 1 6 6 2 2 2 3 7 10 8 7 9 9 9 9 9 9 8 7 10 12 13 15 16 17 17 16 15 15 14 13 13 14 17 19 19 19 19 19 20 21 22 23 23 24 25 26 26 26 27 28 27 27 28 28 27 27 26 26 26 26 26 26 26 26 26 27 27 27 27 26 26 26 26 26 25 23 23 22 20
1 1 1 0 3 5 7 10 6 3 1 2 3 6 10 7 7 10 11 11 9 8 7 8 9 11 13 12 14 16 16 15 15 15 13 10 10 12 14 15 15 17 17 17 19 21 22 23 23 23 24 25 26 26 26 26 26 27 27 27 28 27 27 27 26 26 26 26 26 27 26 26 27 27 27 27 27 27 27 27 28 28 27 25 23 22
2 1 1 1 2 5 7 8 4 1 2 2 5 6 8 6 9 12 14 12 8 10 10 10 11 12 11 10 12 14 15 15 16 16 12 6 6 11 15 14 13 15 15 16 19 22 22 22 23 24 24 25 25 26 26 26 26 27 27 27 27 27 26 27 27 26 26 26 27 27 26 26 26 27 27 28 27 26 27 26 27 29 29 26 23 24
1 1 1 1 2 3 4 4 4 5 2 5 5 5 6 7 9 9 10 8 8 9 9 9 11 11 9 9 10 11 14 15 14 12 6 3 5 11 12 11 12 14 15 19 21 22 22 22 22 23 24 24 25 26 26 26 27 27 27 27 26 26 26 26 26 26 26 26 27 27 26 26 25 26 28 29 28 26 26 26 27 29 28 25 25 26
2 2 1 1 0 1 4 2 4 7 3 3 4 4 4 5 5 4 6 4 8 9 7 8 12 10 7 8 8 9 12 13 10 4 5 2 9 14 12 12 13 15 17 21 23 22 22 22 21 23 23 23 24 25 25 26 27 27 27 26 26 26 26 26 26 26 27 27 27 27 26 25 25 26 28 30 29 27 27 28 29 29 27 25 26 28
2 2 2 2 1 1 3 4 3 5 4 1 4 4 4 3 2 1 3 4 5 8 6 7 10 10 8 8 8 8 9 9 6 1 1 5 12 15 14 14 15 16 18 21 23 22 22 21 21 22 23 23 24 24 25 26 26 26 26 26 26 27 26 26 26 27 28 28 27 27 25 24 25 27 28 29 29 30 30 31 31 29 25 24 27 29
1 1 1 2 2 1 1 3 2 4 3 2 6 5 3 3 5 5 2 2 5 7 5 6 9 9 8 8 9 8 6 6 6 5 6 10 14 15 15 15 16 16 17 20 22 22 21 22 22 22 22 22 24 24 25 25 25 24 25 25 26 26 25 26 27 28 29 28 27 25 24 24 26 27 27 29 32 33 32 31 31 28 24 23 24 24
2 0 1 3 2 2 2 2 3 5 4 3 6 3 3 8 9 3 4 2 3 5 3 4 8 9 8 7 8 5 4 5 7 8 11 16 17 16 15 15 16 17 18 20 21 20 21 21 21 21 22 22 24 24 25 24 23 23 24 25 25 25 25 27 28 28 28 26 25 24 24 24 26 27 28 31 33 33 32 29 27 26 25 24 21 17
1 0 1 2 2 2 3 3 4 5 3 4 6 4 6 9 6 3 6 4 1 1 3 3 7 8 6 6 6 4 4 7 9 12 15 17 17 15 15 16 16 16 18 20 20 20 20 20 19 20 21 22 23 23 23 23 23 23 24 24 24 25 27 27 27 27 26 25 25 25 25 25 27 28 30 32 32 31 30 28 25 25 26 25 21 19
1 1 1 1 1 2 3 3 5 5 2 5 5 4 6 4 3 5 3 2 3 6 5 4 5 6 5 6 6 6 8 10 11 13 14 14 15 15 16 16 16 16 18 19 19 19 19 20 20 21 22 21 22 22 22 22 23 23 23 24 25 27 27 27 26 25 25 26 27 27 27 28 29 30 31 31 29 27 27 27 26 26 24 22 21 23
1 1 2 2 2 1 1 3 4 5 1 7 6 3 4 4 4 3 3 3 2 4 5 5 4 4 5 6 8 9 10 11 11 11 12 13 14 14 15 16 16 17 19 19 19 18 18 19 20 21 21 21 21 22 22 22 22 22 23 24 26 26 26 26 26 26 27 27 28 28 29 29 31 32 30 28 27 25 25 25 25 25 21 19 20 21
3 2 2 2 2 1 2 3 2 2 3 8 6 3 4 4 1 0 3 4 3 2 3 4 4 4 5 7 8 9 10 10 10 10 10 12 13 13 14 15 15 17 18 18 18 18 17 18 19 20 20 20 21 22 21 20 21 22 23 25 26 27 28 28 28 29 30 29 28 28 28 29 30 30 28 26 25 23 23 23 23 22 21 19 18 17
4 3 2 3 3 3 4 6 3 1 3 8 7 6 4 3 2 3 4 4 4 3 2 3 5 4 5 6 8 9 9 9 10 10 9 11 12 12 14 15 15 16 17 18 18 17 17 17 18 19 19 19 20 20 19 18 20 22 23 25 27 28 29 30 31 31 31 31 29 28 28 29 28 27 25 25 24 21 20 20 20 19 20 20 17 17
2 2 0 2 2 4 9 10 9 9 7 6 6 5 4 4 5 5 6 6 5 4 3 4 5 5 5 6 7 8 8 8 9 10 9 10 12 12 13 14 14 15 17 18 17 17 17 17 16 17 18 19 19 18 17 17 19 21 23 26 27 29 29 31 32 32 31 31 30 27 26 26 24 22 22 22 21 18 17 18 18 17 18 17 16 17
2 3 3 4 1 3 6 6 6 8 7 4 4 4 4 5 6 7 6 6 5 4 5 5 5 6 6 6 7 8 9 9 9 9 8 9 11 11 12 14 15 15 16 17 17 17 16 16 15 17 18 19 18 17 16 17 18 20 24 26 27 28 30 30 31 31 31 32 28 24 22 21 21 21 20 18 18 17 17 17 17 16 16 16 16 17
2 4 5 6 6 6 7 6 5 7 7 6 6 5 5 6 8 8 7 6 5 6 6 6 6 6 6 7 7 8 9 9 8 8 8 8 10 11 12 13 16 17 17 16 16 15 15 15 15 16 17 18 17 16 16 17 19 21 24 26 27 28 29 29 30 31 31 29 24 20 19 18 19 20 18 17 18 18 16 17 17 16 16 15 16 17
4 3 4 4 6 9 11 11 9 8 9 9 9 8 7 7 9 9 8 7 7 7 7 7 8 8 8 7 8 8 9 9 8 8 8 9 10 11 12 14 17 18 17 16 15 14 14 14 15 15 17 18 16 15 16 18 20 22 24 25 27 28 28 29 31 30 29 25 20 19 19 18 18 18 18 18 19 19 17 17 17 16 17 16 15 16
4 5 4 2 3 6 7 6 4 4 8 6 6 8 9 9 9 9 9 8 9 8 8 8 8 9 10 10 9 9 9 8 8 8 8 9 10 11 13 16 18 18 16 15 14 14 13 13 14 16 18 18 16 16 18 19 21 23 25 25 27 28 29 30 30 28 26 23 20 20 20 19 19 19 18 18 19 20 21 20 18 16 15 16 17 16
7 7 7 6 6 6 4 4 5 5 8 5 3 6 9 9 9 10 10 9 9 9 9 8 8 8 9 10 10 10 10 9 8 8 9 10 10 11 13 15 17 18 17 15 14 14 14 14 16 18 19 19 18 18 19 20 22 24 25 27 28 28 29 30 29 26 25 23 21 21 21 19 19 19 17 17 18 19 20 23 24 21 16 16 17 17
Wind_Direction
331 49 45 21 7 4 11 33 48 318 279 291 304 315 316 318 327 327 327 336 7 337 323 331 326 326 40 56 50 72 93 102 108 105 98 89 76 56 38 30 19 15 3 331 308 297 294 294 300 300 296 294 294 294 291 288 287 289 294 291 292 295 290 294 304 310 319 326 329 332 333 332 331 332 331 332 333 333 332 333 335 332 328 325 321 316
41 51 39 3 352 339 351 87 265 292 285 307 328 327 324 332 331 319 311 324 344 334 318 327 325 348 71 68 66 82 85 93 101 102 96 76 56 32 14 8 355 346 315 300 294 289 285 283 290 294 296 296 297 298 295 292 290 289 291 289 289 291 289 289 294 300 307 314 318 320 324 322 320 322 320 319 323 325 327 332 335 333 332 331 326 320
56 51 19 354 343 256 211 184 295 320 320 341 351 337 338 342 334 322 306 326 332 315 318 329 320 24 83 79 72 79 80 83 85 87 82 57 35 13 357 349 336 331 316 304 296 292 290 286 286 288 290 295 297 298 297 296 297 294 289 287 287 284 281 282 283 286 292 301 305 302 304 306 305 307 307 306 309 313 317 324 329 330 331 331 329 325
51 33 6 348 278 283 268 203 335 339 337 1 9 354 343 342 337 328 328 328 318 292 302 314 308 71 96 91 77 78 81 81 78 70 59 33 18 356 339 332 321 319 310 304 301 299 300 299 299 298 296 301 304 305 307 308 308 307 300 294 292 284 275 273 272 272 277 282 286 287 289 290 290 292 295 297 301 305 312 317 322 324 327 328 327 325
69 18 350 297 261 340 359 13 13 359 350 17 34 9 339 335 330 314 316 320 310 281 273 318 324 53 98 97 87 85 83 78 70 55 38 11 1 346 335 334 325 319 310 308 312 314 318 319 318 316 312 313 315 315 316 316 314 311 307 302 298 290 278 271 268 268 269 270 272 276 280 284 285 286 288 292 296 303 309 313 315 318 322 324 323 321
66 18 319 312 349 2 9 18 22 357 340 26 54 12 335 322 318 312 320 324 320 348 39 356 340 351 61 90 91 84 77 67 57 42 22 2 353 346 343 340 336 332 327 323 321 322 324 326 327 328 327 325 322 320 318 316 314 311 309 306 303 298 288 278 272 268 266 264 266 270 276 284 288 289 290 292 295 300 304 306 309 313 316 318 320 318
53 15 339 19 1 7 16 18 28 1 339 6 14 349 323 310 311 318 326 323 332 340 1 42 356 332 25 79 76 73 70 55 46 26 10 0 353 347 344 342 338 334 332 329 325 324 328 335 338 336 332 327 322 322 321 320 319 316 313 311 308 305 299 290 282 274 266 261 265 269 271 276 279 280 283 285 288 292 295 298 301 306 310 312 315 315
19 6 19 11 356 17 18 1 7 1 342 354 346 332 314 310 313 319 317 308 330 328 330 38 358 326 344 68 78 79 59 41 26 9 3 3 357 347 342 341 337 331 330 328 326 333 341 343 340 335 332 331 329 331 332 331 328 324 320 316 313 309 305 299 292 283 272 263 267 273 274 275 276 277 280 282 283 286 290 294 297 301 305 307 310 312
13 12 14 359 8 23 8 345 343 346 356 345 329 317 303 307 308 303 302 311 325 324 334 359 350 329 338 86 118 76 37 24 8 0 360 2 358 347 338 335 332 329 326 325 334 345 345 341 338 338 339 339 339 341 341 338 334 331 328 325 324 321 315 308 301 293 281 272 272 277 280 280 281 282 284 286 286 287 290 293 297 301 304 304 306 309
51 25 336 339 21 13 340 331 331 353 9 325 308 304 296 298 302 296 328 335 327 335 348 352 350 336 337 99 113 14 23 12 357 357 355 353 349 342 334 329 328 327 325 331 344 345 340 339 340 339 339 340 342 345 346 342 338 337 336 334 334 333 330 324 316 306 292 283 280 281 284 284 286 291 293 293 293 295 296 296 298 301 302 304 305 307
109 51 269 327 31 353 308 306 318 18 338 300 306 325 316 305 326 327 5 339 329 344 352 352 348 334 331 51 52 19 26 7 352 353 350 344 339 335 332 331 331 330 332 342 343 336 335 337 337 337 339 342 342 338 338 335 331 329 329 329 330 330 330 329 326 320 310 301 295 295 299 299 302 308 308 305 303 303 302 300 301 301 300 301 302 304
133 164 264 145 34 314 282 269 206 189 278 315 344 350 344 355 356 335 337 5 342 342 349 351 342 327 327 1 62 43 27 5 355 351 347 339 334 333 333 336 336 334 341 343 335 332 334 336 337 339 342 342 337 333 333 332 327 324 322 324 325 325 324 323 327 332 332 332 332 332 332 321 316 315 311 308 306 305 304 301 302 302 301 299 297 298
140 142 94 174 185 328 323 330 303 203 352 7 8 2 358 355 348 345 348 347 336 332 342 344 330 325 349 45 89 31 13 8 358 352 345 338 335 335 336 338 335 336 341 337 333 335 337 339 341 341 340 339 337 337 338 336 332 330 330 330 330 328 327 329 340 349 348 347 344 338 332 324 319 315 311 308 306 305 304 301 300 299 298 295 293 291
64 123 97 127 174 356 4 13 7 351 8 16 13 4 -0 351 343 342 340 336 323 319 338 356 343 328 349 59 100 15 16 9 352 347 342 339 338 336 334 336 333 334 338 334 336 339 338 341 341 338 338 339 341 343 343 338 334 336 336 335 335 335 338 347 354 352 346 342 336 330 327 322 318 313 310 308 305 304 301 298 296 294 293 290 288 286
1 42 47 37 3 1 22 41 4 328 351 23 15 349 346 358 341 323 322 322 315 310 332 20 31 339 338 27 105 33 5 333 340 341 338 338 340 336 334 337 334 335 337 336 340 339 338 342 339 335 337 340 342 343 341 337 333 336 334 332 332 335 339 344 344 341 337 333 328 324 321 318 314 311 309 306 303 301 298 296 294 293 291 289 286 284
326 259 46 53 55 4 22 54 297 297 299 6 353 341 348 342 324 305 284 284 298 305 326 9 3 343 351 123 107 30 349 341 339 340 340 339 339 338 338 339 337 338 338 340 345 341 339 339 335 335 337 340 340 338 337 334 332 333 332 331 332 332 332 333 333 334 332 329 326 323 319 315 312 309 307 305 303 302 300 297 296 294 292 289 286 284
319 292 28 53 115 47 35 65 40 8 346 347 349 352 337 315 338 343 297 286 309 315 331 340 330 339 358 137 65 1 347 346 341 340 343 341 340 340 339 341 340 339 340 344 346 342 338 334 334 337 339 338 337 334 333 332 332 333 332 332 333 333 333 333 333 334 332 329 325 320 316 313 312 310 308 307 305 305 303 300 298 297 294 289 285 285
314 295 344 31 93 75 89 103 77 56 4 354 3 339 315 229 148 23 323 325 338 326 324 333 327 333 336 336 359 351 342 343 343 343 343 342 342 341 339 341 340 339 341 342 342 341 338 335 338 343 341 336 334 334 335 336 336 335 333 334 336 337 337 335 333 331 328 325 322 319 317 316 316 315 313 311 308 306 304 302 300 298 294 290 288 287
282 286 311 136 336 35 141 150 80 68 54 62 50 344 336 341 348 354 350 343 341 328 317 327 328 330 331 325 336 342 341 343 344 344 342 342 343 341 339 339 339 342 343 338 339 341 341 342 345 343 338 334 333 335 339 339 337 335 333 333 334 335 334 332 330 329 327 326 324 322 321 320 319 317 314 312 308 305 303 302 300 298 294 291 289 288
221 287 355 158 253 310 133 229 307 60 78 96 92 29 35 30 316 318 52 344 340 324 314 321 322 324 333 320 330 342 346 346 344 342 341 342 341 340 339 337 338 344 342 338 339 339 340 344 343 339 338 337 336 337 339 338 336 335 333 331 331 331 332 332 332 331 330 328 327 325 324 322 320 317 314 311 309 306 304 302 300 297 293 290 288 285
202 254 289 269 259 268 48 59 73 73 55 53 55 32 28 34 202 185 183 57 356 321 316 319 308 310 348 0 346 350 349 347 345 341 339 339 339 340 339 336 339 342 340 340 340 337 338 340 339 338 339 340 341 341 340 338 337 336 334 333 332 332 332 333 332 331 329 328 326 324 323 322 319 317 314 311 308 304 302 300 299 297 295 291 288 286
230 226 276 306 314 317 72 91 105 97 79 50 45 45 33 21 8 355 334 51 4 308 293 289 291 303 347 99 9 359 349 344 343 340 337 337 338 339 337 336 340 341 339 340 340 338 337 337 338 339 339 340 342 342 341 340 338 337 335 334 334 333 333 332 331 330 328 326 325 323 322 321 319 316 313 310 307 303 299 298 298 297 296 292 289 287
284 244 261 285 301 25 85 103 109 111 111 93 81 85 64 43 37 12 331 325 328 301 272 272 285 299 80 76 7 -0 348 340 341 341 338 337 338 338 336 337 341 341 338 340 340 339 337 336 337 339 339 340 342 341 341 340 338 336 333 333 333 333 332 331 330 329 327 325 323 323 322 320 318 317 314 312 309 305 302 300 298 297 294 292 290 288
207 229 279 280 267 114 109 113 128 148 151 90 74 64 66 74 58 327 293 313 316 298 301 304 286 284 43 8 351 350 342 337 340 342 340 337 337 338 336 337 341 340 339 341 340 337 337 338 338 338 339 340 341 341 340 338 337 335 332 332 333 331 331 331 330 328 327 325 323 322 322 321 320 318 316 314 311 308 306 303 300 298 294 292 289 287
231 326 322 322 336 63 114 25 232 230 275 41 77 67 79 103 180 251 221 261 288 288 312 310 288 293 328 337 338 339 337 336 338 341 342 339 336 336 337 336 339 339 341 342 339 336 338 339 339 339 338 339 340 340 338 336 335 333 332 333 333 331 331 331 329 328 327 325 323 323 322 321 320 318 316 315 312 310 308 306 303 300 296 293 290 288
280 334 348 6 2 341 320 313 308 311 325 3 116 97 89 106 108 254 266 296 303 308 309 287 280 301 316 327 335 337 337 337 337 340 341 339 336 336 337 337 338 339 341 341 338 337 338 339 338 337 337 338 339 339 337 334 333 333 332 332 332 331 330 330 329 328 326 325 323 322 322 321 319 317 316 314 313 312 310 308 305 302 299 295 292 289
212 264 276 212 255 284 285 284 296 313 310 295 295 114 132 133 144 235 310 316 310 310 291 244 271 304 313 325 334 336 337 335 335 339 339 337 337 337 336 336 337 338 339 339 338 336 336 337 336 335 336 336 336 337 336 333 331 332 331 331 331 331 330 329 328 327 326 325 323 322 321 321 319 317 315 314 313 311 310 308 306 303 301 297 294 290
209 247 227 215 238 254 270 279 288 298 291 285 288 206 174 167 163 201 295 294 301 313 293 268 300 307 306 320 331 332 333 332 332 336 337 334 333 333 332 332 334 338 340 338 338 337 335 335 335 335 335 334 334 335 335 332 331 331 330 330 330 330 329 328 327 326 325 324 323 321 320 320 318 317 315 313 312 310 308 307 305 303 300 297 294 290
274 274 171 213 262 266 267 271 276 280 274 268 254 217 203 204 196 210 252 271 285 291 282 294 307 304 300 315 327 327 328 329 327 328 329 328 327 328 329 331 335 339 340 339 338 337 335 334 333 334 335 333 333 334 333 332 331 330 329 329 329 328 328 328 326 325 325 324 322 321 321 319 318 316 314 313 312 310 308 306 304 302 299 295 292 288
237 257 108 253 282 283 275 267 261 255 248 235 221 210 205 222 236 243 259 268 262 253 266 286 295 294 297 312 321 322 324 323 320 322 325 326 328 329 329 332 335 337 338 339 338 336 335 333 332 333 333 332 331 332 332 332 331 329 328 328 328 327 327 327 326 325 324 323 321 321 320 319 318 316 315 314 313 311 309 306 304 301 298 295 290 286
280 341 63 86 289 288 271 243 223 227 247 253 229 205 205 238 255 257 262 268 265 262 273 291 295 290 301 320 319 319 322 322 322 326 329 330 331 329 329 334 336 336 336 337 336 335 334 332 332 332 332 330 330 331 331 331 329 328 326 326 326 326 326 327 325 324 323 321 320 320 320 319 318 317 316 315 314 312 310 307 305 302 299 296 292 288
290 321 60 65 306 290 195 224 263 209 224 264 239 219 214 227 254 267 264 266 275 283 290 300 303 303 322 328 320 318 325 328 328 329 329 329 329 329 332 336 337 335 334 334 334 334 333 331 331 330 329 328 329 330 330 329 328 327 326 326 325 324 325 325 324 322 322 321 320 321 320 319 318 316 315 314 313 312 311 310 307 304 302 299 297 294
150 291 311 43 297 285 347 323 310 133 138 264 234 216 208 213 262 285 280 271 265 272 288 291 288 303 318 323 319 322 329 330 328 326 325 323 323 326 331 334 335 334 332 331 332 333 331 329 328 326 326 327 328 329 328 327 326 325 324 324 323 323 324 324 323 322 321 321 321 321 320 319 318 316 314 313 313 312 312 312 311 309 307 306 304 299
143 271 286 124 277 286 319 316 291 170 251 329 107 158 182 200 276 290 291 284 256 227 239 256 274 300 314 318 318 321 324 323 317 314 312 310 313 324 327 327 330 332 330 329 331 331 329 327 325 323 324 326 327 327 326 326 325 323 322 322 322 323 323 323 323 322 321 321 321 320 320 319 318 316 314 312 313 312 311 312 313 315 316 313 309 306
151 222 204 145 255 277 315 323 314 8 28 106 136 162 188 226 268 272 275 273 236 210 226 252 282 300 305 307 311 312 314 313 308 304 300 290 307 326 325 322 327 332 332 331 330 329 327 324 322 322 323 325 326 326 326 326 325 323 323 323 323 323 323 322 322 321 321 321 320 320 320 319 318 317 315 314 313 312 312 312 312 317 320 316 312 312
203 212 197 211 243 275 328 356 337 328 11 141 173 204 220 257 278 279 277 252 202 205 227 258 288 296 294 295 300 306 309 306 300 291 269 248 323 333 325 320 327 332 332 331 328 327 325 322 319 320 322 323 324 325 326 326 326 324 322 322 323 322 323 322 321 321 322 321 320 319 319 319 318 317 316 316 315 314 314 313 313 318 321 317 316 317
212 194 227 283 299 321 314 282 255 288 298 156 177 196 212 273 306 320 302 248 191 195 221 271 294 300 297 292 295 300 299 297 295 259 192 244 335 336 326 321 326 328 329 329 327 324 322 319 318 319 320 321 322 324 326 326 326 324 321 321 323 323 323 323 322 322 321 320 319 318 318 318 316 316 317 317 316 315 316 317 317 319 321 319 319 321
193 235 274 290 305 72 312 300 277 293 310 146 161 170 192 246 239 177 274 261 185 182 211 274 299 310 312 308 310 306 295 297 311 316 176 327 335 333 325 324 326 326 326 327 326 324 321 319 319 320 319 320 322 324 326 325 325 323 321 322 323 323 323 323 322 322 321 319 317 316 317 316 315 316 316 316 316 318 320 322 322 322 322 320 319 320
172 276 205 244 275 180 305 319 295 277 297 137 154 176 203 192 156 154 229 253 177 187 225 279 307 318 323 321 321 322 321 321 321 328 339 334 331 329 326 325 326 325 325 327 326 324 321 320 319 319 320 321 323 326 327 325 324 322 321 322 323 322 323 323 322 322 320 317 316 315 315 315 315 316 315 317 320 323 323 324 324 323 320 317 316 317
163 0 203 225 257 187 193 269 255 252 267 155 159 179 142 137 144 164 307 326 156 184 237 308 319 322 324 322 322 327 332 317 305 310 322 323 322 323 324 324 325 325 325 327 326 323 321 321 319 319 322 323 323 325 326 325 324 322 321 322 321 321 322 322 321 320 318 316 316 315 315 315 315 316 318 321 324 326 326 323 320 320 321 319 316 311
168 148 238 250 261 192 199 253 265 261 256 161 168 161 125 136 157 285 324 347 26 326 337 335 319 319 318 314 313 299 285 290 291 299 309 313 315 317 320 322 323 324 325 326 325 323 321 320 319 319 320 321 322 324 326 325 324 322 322 322 321 321 322 320 319 318 318 317 316 315 315 316 316 319 323 327 328 327 327 325 320 321 324 322 318 316
176 180 222 236 239 198 200 239 265 272 227 153 156 138 133 165 279 314 328 342 337 330 331 319 306 310 305 293 285 277 282 289 291 295 301 306 309 312 317 321 321 322 326 326 325 324 321 318 318 319 320 322 324 325 326 325 323 322 322 322 322 322 322 320 319 319 319 318 317 316 316 318 322 325 328 332 333 326 323 326 328 328 326 321 321 323
156 248 260 222 203 215 235 256 289 313 190 157 152 137 175 231 295 332 321 316 318 309 307 299 287 288 289 284 279 278 283 287 290 294 299 303 305 308 314 318 319 321 325 326 324 324 321 316 316 317 319 322 325 326 326 325 322 322 322 321 322 323 322 321 321 321 320 318 318 317 317 321 327 331 331 333 332 325 320 326 331 331 328 323 322 323
182 204 271 255 198 201 263 257 286 353 146 170 185 229 226 230 298 0 259 278 277 266 287 287 274 267 269 272 278 283 283 284 288 294 298 302 305 308 311 313 315 318 321 321 320 321 319 315 313 314 316 320 324 325 326 325 321 321 321 321 323 324 323 323 323 321 320 319 318 317 319 323 329 332 332 332 329 324 322 324 326 327 327 325 323 326
191 180 276 268 214 217 269 265 263 314 162 177 206 247 240 198 163 179 213 248 262 248 238 261 273 270 258 260 272 278 278 280 287 291 294 299 303 305 308 310 310 313 317 316 315 317 316 312 310 312 314 319 324 324 324 324 322 320 320 321 324 325 325 325 323 320 320 319 319 319 321 325 328 330 331 331 327 321 320 322 323 324 324 325 330 336
192 114 131 251 243 280 277 260 252 268 263 208 201 231 225 180 172 183 201 222 238 233 218 243 265 263 250 254 262 268 272 278 285 288 290 295 300 302 305 307 309 311 314 314 312 313 314 311 311 312 314 319 324 325 324 324 323 320 320 322 325 326 325 324 322 321 320 320 319 319 320 322 325 325 325 327 326 322 319 321 322 320 319 326 338 339
176 150 203 231 242 302 275 234 215 249 258 212 181 202 212 203 193 188 201 216 220 219 219 230 248 252 247 247 252 260 269 274 279 286 291 295 299 302 304 307 309 310 311 310 309 311 312 311 311 314 315 317 321 323 324 323 322 321 322 324 325 326 326 324 322 322 321 320 319 319 318 320 322 321 322 325 325 323 321 323 324 324 324 333 340 336
139 163 218 230 217 231 260 266 252 247 239 217 212 216 210 205 198 192 200 208 202 207 218 223 232 240 242 242 247 256 265 267 270 281 291 295 297 298 300 304 306 306 306 307 308 309 310 308 309 312 313 314 317 320 321 321 322 324 325 326 328 328 327 326 325 323 321 320 318 319 319 320 321 322 323 324 324 322 321 323 327 329 330 335 337 333
110 170 208 220 233 251 268 274 270 264 251 227 217 219 210 194 188 189 194 195 194 201 212 218 223 229 236 244 246 250 258 262 262 268 281 292 294 294 297 303 304 302 301 304 305 306 306 307 308 309 310 311 314 318 320 320 323 328 330 330 331 331 329 329 328 325 323 323 322 322 322 322 322 322 323 323 324 323 319 318 322 325 327 333 337 338
151 202 187 171 249 261 259 242 224 270 277 251 205 203 199 179 173 182 189 194 203 206 206 213 221 225 231 238 238 240 252 259 257 261 273 282 286 290 296 302 303 301 300 302 305 304 304 306 307 307 310 313 316 319 319 319 324 333 336 336 336 335 333 332 331 328 326 327 326 325 325 324 322 323 323 323 325 327 326 325 328 331 331 334 339 343
197 202 170 181 235 256 247 200 174 226 269 272 189 181 179 168 173 188 195 201 207 204 201 207 218 222 225 229 228 232 246 255 257 262 268 271 276 285 291 296 298 299 299 302 305 305 306 309 311 311 314 317 320 320 319 319 327 337 341 342 342 339 336 335 334 330 328 328 326 325 325 323 321 322 323 324 327 330 331 332 334 337 341 343 344 346
Height
852 851 861 869 872 876 879 880 879 877 877 873 868 867 865 860 857 855 850 848 854 856 846 842 842 840 854 871 874 874 874 876 881 884 888 890 891 892 893 893 893 892 891 891 890 888 886 883 881 879 877 875 872 871 869 867 865 863 862 861 859 858 856 855 853 851 849 847 844 843 841 840 838 837 836 835 834 834 833 832 831 830 829 828 826 825
852 859 874 880 881 884 884 885 883 877 875 870 866 867 862 860 859 855 853 849 851 857 848 842 842 844 863 876 875 877 877 880 883 886 891 892 894 894 894 894 893 892 891 889 888 886 884 881 878 877 874 873 871 868 867 865 863 861 860 859 857 856 854 853 851 849 847 845 843 841 840 839 837 836 835 833 833 832 831 830 829 828 827 826 825 823
852 866 880 884 887 888 886 885 880 874 871 866 865 867 865 863 859 852 851 849 851 855 847 843 844 850 870 879 878 882 883 886 888 889 894 894 895 895 894 894 892 890 889 886 885 882 880 878 875 874 871 870 868 866 865 862 861 859 857 856 854 853 852 850 849 847 845 843 841 840 838 837 836 834 833 832 831 830 829 828 827 827 825 824 822 821
860 872 881 887 888 883 879 878 877 872 867 865 868 871 870 868 867 860 852 850 850 851 850 847 842 851 874 882 883 889 889 891 894 893 895 894 894 895 893 893 891 889 887 884 882 879 876 875 873 872 869 868 866 864 863 861 859 857 855 853 851 850 848 847 846 844 842 841 839 837 836 835 833 832 831 830 829 828 828 827 826 825 823 822 820 819
872 880 885 887 884 876 870 871 875 874 866 867 873 877 876 871 872 868 858 853 845 844 852 849 837 842 866 882 887 892 892 893 895 893 893 892 891 893 892 891 890 888 886 882 879 877 875 873 871 870 869 867 865 863 861 859 857 855 852 851 849 847 846 844 843 841 840 838 836 835 833 832 831 830 829 828 827 826 826 825 824 823 821 820 818 817
875 884 887 882 876 872 869 868 876 880 869 866 873 878 878 873 871 865 858 856 846 843 850 850 849 846 858 883 891 891 895 895 895 892 890 891 890 891 891 889 888 886 884 882 879 877 874 872 869 868 867 866 864 862 860 858 855 853 850 849 847 845 843 841 840 838 837 836 834 833 831 830 829 828 827 826 825 825 824 823 822 821 820 818 816 815
877 884 884 879 875 870 869 869 876 883 871 865 871 875 876 873 868 862 860 861 853 851 848 848 860 855 857 886 895 892 898 896 893 892 890 891 891 891 890 889 887 885 882 880 877 875 873 871 870 868 867 866 863 861 859 856 854 852 849 847 845 843 841 839 838 836 835 833 832 831 829 828 827 826 825 824 823 823 822 821 820 819 818 816 814 813
879 879 880 879 874 869 872 872 875 881 875 870 872 873 874 870 863 860 862 859 852 852 847 844 856 855 860 890 898 894 898 895 893 893 891 892 892 892 891 890 888 884 881 878 875 874 873 873 871 869 868 865 863 861 859 857 854 852 849 846 844 842 839 837 836 834 833 831 829 828 828 827 825 824 823 822 822 820 820 818 817 817 815 814 812 811
884 881 883 881 874 873 877 878 877 880 877 873 872 871 871 864 858 858 859 855 851 855 852 846 854 856 864 889 895 890 894 896 896 895 893 895 895 894 892 890 888 884 880 878 875 875 875 874 872 870 868 866 864 862 860 858 855 852 849 846 844 841 838 836 834 832 830 829 827 826 825 824 823 822 821 820 819 818 817 816 814 813 812 810 809 808
886 886 890 885 879 880 881 879 878 879 878 875 872 869 864 859 856 854 856 854 849 857 859 851 857 861 867 886 891 889 897 902 899 897 897 897 897 896 893 890 887 883 880 878 877 877 875 873 872 870 869 867 865 864 862 859 857 854 851 848 845 842 839 836 833 830 828 827 826 824 823 822 821 821 820 819 817 816 815 813 811 810 808 807 805 804
889 893 893 888 885 885 883 879 878 881 880 874 869 864 858 854 853 851 857 863 859 858 857 853 860 863 865 882 892 895 903 905 903 901 900 899 897 895 893 890 887 882 880 878 878 877 875 873 872 870 868 867 866 864 861 859 856 853 851 848 845 842 839 835 832 830 827 826 824 823 822 821 821 820 818 817 815 814 813 811 809 807 805 804 802 801
886 888 886 888 890 887 883 878 878 881 878 872 868 864 857 851 852 852 854 865 870 865 855 854 862 863 866 882 893 899 903 904 905 905 904 902 898 894 891 889 886 882 880 880 878 876 874 872 871 869 868 866 865 863 860 858 855 852 848 846 843 840 838 835 832 830 828 826 825 823 823 822 820 819 817 816 814 812 811 808 807 805 803 802 800 798
876 882 885 889 891 889 881 873 873 874 872 872 871 873 876 873 874 874 867 868 871 864 856 859 865 866 872 887 896 899 901 903 905 905 905 903 897 893 891 889 886 882 881 880 878 875 874 872 870 870 868 867 865 862 861 858 854 851 847 845 842 838 836 834 831 830 828 827 826 825 824 822 820 819 817 815 813 811 809 807 805 803 801 799 797 795
871 877 884 885 886 887 882 877 878 877 876 879 884 891 898 903 909 906 892 885 879 866 857 862 870 871 874 887 898 899 900 903 903 904 904 901 897 893 890 889 886 883 883 881 878 876 875 873 872 870 869 867 865 863 861 858 854 851 848 845 842 839 836 834 832 831 829 828 827 825 824 822 820 819 817 814 812 810 808 806 803 801 799 796 794 793
880 874 879 882 884 885 886 891 892 889 887 887 891 896 898 906 920 920 908 905 896 874 860 867 878 878 879 890 898 898 899 901 901 902 902 898 895 893 889 888 885 883 883 881 879 878 876 875 874 871 870 868 866 864 862 859 855 852 850 846 843 840 837 835 833 832 830 828 826 825 823 821 819 817 815 813 811 808 806 804 801 799 797 794 792 790
886 876 881 887 891 889 891 897 895 892 892 888 887 895 899 900 905 910 908 905 896 877 864 871 876 872 879 892 896 896 899 900 900 900 899 896 893 890 888 887 885 883 883 881 881 879 877 877 875 872 871 869 867 865 862 859 855 852 850 847 844 841 838 836 834 831 830 828 825 824 822 820 818 816 813 810 808 806 803 801 799 796 794 792 790 788
888 876 880 888 891 892 896 897 895 895 893 890 894 901 904 901 902 908 903 887 884 882 872 875 877 872 878 889 892 896 899 898 899 898 897 896 892 890 888 886 886 885 883 882 882 881 879 877 875 872 872 870 867 865 861 859 856 853 850 847 844 841 838 835 833 831 829 827 825 822 820 818 816 813 811 808 805 803 801 799 796 794 792 790 788 787
905 886 880 889 890 892 901 898 896 902 899 898 907 906 902 902 902 908 910 895 890 893 882 880 887 884 884 889 891 897 900 898 898 896 895 894 890 889 888 887 887 885 883 883 883 882 880 878 876 874 873 871 868 865 862 858 856 853 850 847 844 841 838 836 833 831 829 826 824 821 818 816 814 811 809 806 803 801 799 797 795 792 790 788 787 785
920 896 881 895 895 892 899 896 893 902 903 904 913 910 906 907 902 909 926 920 910 910 897 886 889 887 887 893 897 901 902 899 896 894 894 892 890 890 888 887 887 884 884 883 882 882 881 878 877 876 873 871 868 865 862 859 856 854 850 847 844 841 839 836 833 831 828 825 823 820 817 815 812 810 807 804 802 799 797 795 793 791 789 787 786 784
923 905 886 893 896 891 892 892 894 903 907 907 912 915 914 916 916 924 937 931 925 929 914 895 893 889 887 895 900 902 902 898 896 895 894 893 892 891 890 888 886 885 885 884 883 883 881 879 878 877 874 871 867 865 863 860 856 853 850 847 844 841 838 836 833 830 827 824 822 819 816 813 811 808 805 803 800 798 796 794 791 789 787 785 783 782
922 914 896 885 886 887 889 894 897 903 909 908 914 923 923 920 918 922 930 929 932 936 926 919 913 895 887 896 900 899 899 898 898 898 895 895 894 893 892 890 887 887 887 885 885 883 881 880 879 877 875 871 868 865 863 860 856 853 850 847 844 841 838 835 832 829 826 823 820 818 815 812 809 807 804 801 799 797 794 792 789 787 785 783 781 779
918 914 906 893 883 882 892 903 903 905 911 911 917 927 929 925 919 920 927 928 931 935 935 940 930 898 886 895 896 895 896 897 898 898 897 895 894 894 893 891 889 889 888 887 886 883 882 881 879 876 874 871 868 866 862 859 856 852 850 846 843 841 838 835 832 829 826 823 820 817 814 811 808 805 803 800 797 795 792 790 787 785 783 780 778 776
922 918 915 902 887 889 903 909 907 910 913 912 919 926 928 929 928 930 932 925 927 932 930 934 928 899 885 891 892 892 896 897 897 898 897 895 895 895 893 891 891 891 889 888 886 884 883 881 879 876 874 871 868 866 862 859 856 853 849 846 843 840 837 835 831 828 825 822 819 816 813 810 807 804 801 798 795 793 790 788 785 783 780 778 775 773
925 920 913 894 881 895 915 918 916 918 913 910 920 927 929 934 936 936 936 934 936 934 928 932 924 892 878 884 888 891 895 897 898 898 897 895 895 894 892 892 892 890 889 888 887 885 884 882 880 876 873 871 868 865 862 859 856 853 849 846 843 840 837 834 830 828 824 821 818 815 812 809 805 802 799 797 794 791 788 785 783 780 778 775 772 770
917 909 905 892 882 890 902 906 908 908 905 910 923 932 934 940 943 939 941 946 942 931 930 935 917 885 875 881 886 891 896 896 897 897 898 897 895 894 892 891 891 890 889 888 887 885 884 882 879 876 874 871 868 865 862 859 856 852 849 846 843 839 836 833 830 826 823 820 817 813 810 807 804 801 798 795 792 789 786 783 780 778 775 772 770 767
916 908 905 903 902 901 897 894 893 893 900 910 923 935 938 941 946 941 936 937 932 927 931 931 908 883 878 883 887 892 895 895 895 895 896 897 895 894 892 891 891 890 889 889 887 885 884 881 879 877 874 871 869 866 862 858 855 852 848 845 842 838 835 832 829 825 822 819 815 812 809 806 802 800 796 793 790 787 784 781 778 775 772 770 767 765
924 919 911 907 909 909 903 898 894 896 904 909 918 933 939 941 947 942 931 926 927 928 924 914 904 893 886 887 889 892 895 896 895 893 893 894 894 892 892 892 892 891 890 890 887 886 884 881 878 877 874 871 869 866 862 859 854 851 848 844 841 838 835 831 828 824 821 817 814 810 807 804 801 798 795 792 789 785 782 779 776 773 770 767 765 762
921 915 913 915 912 907 904 901 900 905 910 910 917 929 934 938 944 943 935 927 928 929 912 896 901 904 897 893 894 896 898 897 895 895 894 893 893 892 892 892 891 890 891 890 888 886 884 880 878 876 873 871 868 865 862 858 854 851 847 843 840 837 834 830 827 823 820 816 813 809 806 802 799 796 793 790 787 784 780 777 774 770 767 765 762 759
920 912 919 926 917 910 910 907 904 907 911 914 919 925 929 934 938 940 936 927 927 931 915 898 903 907 899 896 899 901 902 900 897 897 896 894 893 893 893 892 890 889 890 889 887 886 883 880 878 875 873 870 867 864 861 857 853 850 846 843 840 836 833 830 826 822 819 815 812 808 805 801 798 794 791 788 784 781 778 775 771 768 765 762 759 756
923 912 923 933 924 912 907 904 905 910 913 917 921 923 925 929 931 932 929 924 924 925 914 904 907 908 901 899 902 902 902 902 900 897 896 895 894 893 892 891 888 888 888 887 886 885 883 880 878 875 873 870 866 863 859 856 852 849 845 842 838 835 832 828 825 821 818 814 811 807 803 800 796 792 789 786 782 779 775 772 768 765 762 759 756 753
924 916 927 939 926 905 899 904 907 909 910 913 917 921 925 927 926 925 923 921 920 917 910 909 910 905 899 899 901 901 899 900 898 896 895 893 892 892 891 890 888 887 887 887 885 883 881 879 877 874 872 869 866 862 859 855 852 848 844 841 838 834 831 827 824 820 817 813 809 806 802 798 795 791 787 784 780 776 772 769 765 762 758 755 753 750
925 922 930 937 919 893 893 901 901 909 920 923 921 920 923 925 921 918 917 914 914 913 911 911 909 899 895 899 901 898 897 898 897 895 893 891 891 892 891 890 888 887 887 886 884 882 880 878 876 873 871 868 865 862 858 855 851 847 844 840 837 833 829 826 823 819 815 812 808 805 801 797 793 789 785 781 777 773 770 766 762 759 755 752 749 746
933 924 924 931 916 889 886 894 901 912 912 903 904 908 911 916 915 911 909 906 907 911 912 910 906 899 897 901 901 897 896 897 897 895 894 892 892 892 891 890 888 887 887 885 883 882 879 877 875 873 870 867 864 861 858 855 851 847 843 840 836 832 828 825 822 818 814 810 807 803 799 795 791 787 783 779 775 771 767 763 759 756 752 749 746 743
939 929 925 932 918 893 889 897 898 891 877 875 892 902 904 909 910 908 906 903 903 908 910 907 902 900 901 904 903 900 898 897 898 896 895 894 893 892 892 890 889 888 886 885 883 881 879 877 875 872 869 866 863 861 857 854 851 847 843 839 835 831 828 824 820 817 812 809 805 801 798 794 790 785 781 777 773 769 765 761 757 753 750 746 743 740
931 929 935 943 929 904 899 897 874 854 865 890 903 903 905 906 905 905 902 898 901 906 907 906 903 901 903 904 903 902 899 898 898 895 893 894 895 894 891 890 890 888 886 885 883 880 879 877 874 871 868 865 862 859 856 853 850 846 842 839 835 830 827 823 819 815 811 807 804 800 796 792 788 783 779 774 771 767 763 759 755 751 747 744 741 737
924 926 932 936 925 907 903 901 877 857 877 904 906 902 907 905 900 902 898 892 898 904 903 904 902 900 903 904 903 902 900 899 896 892 892 893 894 893 892 890 889 888 886 885 882 880 878 876 874 871 868 865 862 858 855 852 849 845 841 838 834 830 826 823 818 814 810 806 802 798 794 790 786 781 777 772 768 765 761 757 754 749 746 742 739 735
926 925 921 918 918 914 907 903 891 875 877 894 899 898 902 901 899 904 901 893 894 899 901 902 900 899 902 903 902 903 902 898 891 887 890 892 891 892 891 889 889 887 886 884 881 880 878 875 873 870 866 864 861 858 855 851 848 844 840 836 833 829 825 822 818 813 809 805 800 796 792 788 784 780 775 770 766 763 759 755 751 748 744 741 737 733
929 925 916 909 916 923 913 901 895 878 864 874 890 895 898 899 900 906 907 896 890 894 899 900 898 897 899 900 901 902 901 894 884 881 887 890 890 890 889 888 888 886 885 883 880 878 877 874 871 869 866 863 860 857 854 851 847 843 839 835 832 828 825 821 817 813 808 804 799 795 791 787 783 779 774 770 765 761 758 754 749 746 743 740 736 732
931 929 925 917 916 922 918 908 902 886 866 871 888 896 897 899 902 908 902 887 884 892 896 896 896 895 896 899 899 898 897 891 882 879 884 887 888 888 887 886 885 885 883 882 879 877 875 872 870 867 865 862 858 856 853 849 846 843 839 835 831 827 824 820 816 812 807 803 798 794 790 786 782 778 774 769 764 760 756 752 748 744 742 739 736 731
928 928 924 915 910 918 921 912 901 885 872 878 890 893 895 901 907 902 880 868 880 892 892 892 894 893 894 897 897 896 896 891 885 882 883 885 886 886 886 885 883 883 881 880 878 876 873 871 869 865 863 860 857 854 851 848 845 842 838 835 831 827 823 819 815 811 806 802 797 793 789 785 781 776 772 768 763 758 754 751 748 744 740 738 734 731
923 930 927 918 913 919 922 913 896 878 872 882 889 890 896 903 899 884 867 867 881 887 886 890 892 891 893 896 895 894 892 889 888 885 884 885 885 884 884 884 882 882 881 878 877 875 872 870 867 864 862 859 856 853 850 847 844 840 837 834 830 826 823 818 814 810 805 801 796 791 787 783 779 775 771 766 762 757 753 750 747 743 740 736 733 730
911 918 923 921 913 913 921 919 896 872 871 883 886 888 897 894 879 869 868 875 881 881 884 889 889 889 892 893 893 892 889 888 888 887 885 885 884 882 882 882 881 880 879 877 875 874 871 868 866 863 861 858 855 852 849 846 843 839 836 832 829 825 821 817 813 808 804 800 795 790 785 781 777 773 768 764 760 756 753 749 746 742 739 735 732 728
904 900 898 904 904 906 917 914 883 858 867 882 883 884 889 880 868 868 874 877 879 882 885 885 886 889 890 889 890 890 888 888 887 885 885 884 882 882 881 880 880 878 876 875 874 872 870 867 864 861 859 856 854 851 848 845 842 838 835 831 827 823 819 815 811 807 803 798 793 788 784 779 775 771 767 763 759 756 752 748 745 741 738 735 731 727
905 894 883 891 900 898 894 882 859 851 867 879 875 872 873 870 868 873 876 876 878 881 883 884 885 887 888 888 889 887 887 886 885 884 884 883 881 881 879 878 878 876 875 874 872 870 869 866 863 860 857 855 852 849 847 844 841 837 834 830 826 822 818 814 810 805 801 796 791 787 782 778 774 770 766 762 758 755 751 747 744 741 738 735 731 728
892 891 884 887 893 888 876 863 855 858 867 873 871 867 867 870 873 875 876 877 878 879 882 883 883 884 886 887 887 886 885 884 883 883 883 881 880 880 878 877 876 874 873 872 870 868 867 864 861 858 855 853 851 848 845 843 840 836 833 829 825 821 817 812 808 803 799 794 790 785 780 776 773 769 765 762 758 754 750 747 744 741 738 734 732 729
890 897 895 891 890 885 872 862 860 861 860 864 868 868 868 871 873 874 876 877 877 877 880 882 882 883 885 885 885 884 882 881 882 881 880 879 879 878 877 876 874 873 872 870 868 866 864 861 859 857 853 850 848 846 843 841 839 835 832 828 824 820 816 812 807 802 798 793 788 784 779 775 771 768 764 761 757 754 750 747 744 741 737 735 733 730
894 899 895 890 890 884 867 855 859 861 858 860 865 867 869 871 871 873 874 874 874 877 878 880 881 881 882 883 883 881 880 880 880 879 878 878 877 876 876 874 872 871 870 868 866 864 861 859 857 854 851 848 845 843 841 838 836 834 830 827 824 819 815 811 806 802 797 792 787 783 779 774 770 767 763 760 757 754 750 747 744 741 738 735 733 730
889 897 892 885 886 880 862 852 858 860 857 860 862 862 865 868 868 871 872 872 874 876 876 877 879 879 879 880 879 879 878 878 878 876 876 875 874 874 874 872 871 870 867 865 864 862 859 857 855 852 850 847 843 841 839 836 833 831 828 825 822 818 814 810 806 801 796 791 787 783 779 775 771 766 763 759 757 753 750 747 744 741 739 736 734 731
891 893 886 881 881 875 861 853 856 856 852 854 857 858 860 863 865 869 871 871 873 873 874 875 875 875 876 876 876 877 876 875 875 875 874 873 872 872 872 871 870 868 865 863 862 859 858 855 853 851 848 845 842 840 837 834 831 828 826 823 820 817 813 809 805 800 795 791 787 783 779 775 771 767 763 759 756 753 750 747 745 742 739 736 734 732
888 880 878 882 877 864 851 846 849 848 842 842 849 854 856 858 862 865 867 869 869 869 870 871 872 872 874 873 873 874 873 872 872 872 871 871 870 870 869 869 868 865 863 861 859 857 856 853 851 849 846 843 841 838 835 832 829 826 824 821 818 815 812 807 803 799 794 791 787 783 779 776 771 768 764 760 756 753 748 745 743 742 739 736 733 731
869 860 863 866 856 842 835 838 845 846 840 839 844 850 853 856 859 861 862 863 864 865 866 867 868 868 869 869 870 870 869 869 869 869 868 868 868 868 868 867 866 863 861 859 857 854 853 851 848 846 844 841 839 837 834 831 827 824 822 819 816 813 810 806 803 799 794 791 787 783 780 776 772 768 764 760 757 754 749 744 740 738 738 736 733 730